This demonstration page uses our WeatherBlox Daily Observations layout. Learn more.

Left ArrowRight Arrow

Hourly Observations for September 20, 2016

Temp ( °F °C ) Dew Point ( °F °C ) Humidity (%) Winds ( mph kmh ) Pressure ( in mb ) Visibility ( mi km ) Precip ( " mm )
12:51 am 00:51 Clear 75 23.9 39 3.9 27 27 WNW 7 11 29.9 1012 10 16.0934 0 0
1:51 am 01:51 Clear 74 23.3 41 5 31 31 W 5 7 29.88 1012 10 16.0934 0 0
2:51 am 02:51 Clear 69 20.6 46 7.8 44 44 Calm 29.9 1013 10 16.0934 0 0
3:51 am 03:51 Clear 69 20.6 45 7.2 42 42 ESE 6 9 29.91 1013 10 16.0934 0 0
4:51 am 04:51 Clear 67 19.4 45 7.2 45 45 E 6 9 29.92 1013 10 16.0934 0 0
5:51 am 05:51 Clear 69 20.6 44 6.7 41 41 SE 6 9 29.92 1013 10 16.0934 0 0
6:51 am 06:51 Sunny 67 19.4 47 8.3 49 49 Calm 29.95 1014 10 16.0934 0 0
7:51 am 07:51 Sunny 71 21.7 46 7.8 41 41 Calm 29.96 1015 10 16.0934 0 0
8:51 am 08:51 Sunny 75 23.9 47 8.3 37 37 Calm 29.96 1015 10 16.0934 0 0
9:51 am 09:51 Sunny 80 26.7 44 6.7 28 28 SE 7 11 29.95 1014 10 16.0934 0 0
10:51 am 10:51 Partly Cloudy 82 27.8 43 6.1 25 25 SE 6 9 29.93 1014 10 16.0934 0 0
11:51 am 11:51 Sunny 86 30 42 5.6 21 21 WNW 5 7 29.91 1013 10 16.0934 0 0
12:51 pm 12:51 Mostly Sunny 88 31.1 39 3.9 18 18 W 6 9 29.88 1012 10 16.0934 0 0
1:51 pm 13:51 Sunny 88 31.1 40 4.4 18 18 W 3 6 29.86 1011 10 16.0934 0 0
2:51 pm 14:51 Sunny 89 31.7 43 6.1 20 20 W 8 13 29.85 1011 10 16.0934 0 0
3:51 pm 15:51 Sunny 88 31.1 41 5 19 19 WNW 13 20 29.84 1010 10 16.0934 0 0
4:51 pm 16:51 Sunny 86 30 41 5 20 20 WNW 10 17 29.85 1011 10 16.0934 0 0
5:51 pm 17:51 Sunny 85 29.4 44 6.7 24 24 WNW 9 15 29.85 1011 10 16.0934 0 0
6:51 pm 18:51 Clear 81 27.2 47 8.3 30 30 NW 7 11 29.86 1011 10 16.0934 0 0
7:51 pm 19:51 Clear with Light Rain 78 25.6 48 8.9 35 35 NW 8 13 29.87 1012 10 16.0934 0 0.0254
8:51 pm 20:51 Mostly Clear 76 24.4 49 9.4 39 39 NNW 8 13 29.88 1012 10 16.0934 0 0.0254
9:51 pm 21:51 Clear 76 24.4 50 10 40 40 NW 5 7 29.88 1012 10 16.0934 0 0
10:51 pm 22:51 Clear 73 22.8 49 9.4 43 43 NW 6 9 29.87 1012 10 16.0934 0 0
11:51 pm 23:51 Clear 71 21.7 52 11.1 51 51 SE 3 6 29.86 1011 10 16.0934 0 0

Powered by AerisWeather